"Pseudo-MPEC" for P116jHw

Created 2020 Sep 19 3:07:41 UT using Find_Orb

Click here for an explanation of pseudo-MPECs

 
 Astrometry: 
     P116jHw  C2020 09 151eJ![;=7AstrometryqkaI+=WE$!x!c(4':)1redacted;:nv?I1F51
     P116jHw  C2020 09 15ZgI+20.(oL_oPam+$Pe*lE#9pS2tdFa3QMx`UGf:pUd!3:frX2qZF51
     P116jHw  C2020 09 165d+hw%,w@click@)Gri?/p6%Z9:eL2\herea!GlCxforKOuEI$lAF51
     P116jHw  C2020 09 16GnaVw5DQI8EI#q5:26aXY9)c4N2mtTnBo%al:_wQBg/m#Imd^'#BF51
     P116jHw  C2020 09 16jkp8EV-gK2(qhnDsjf(^CQ6oV=rx-IdVnexplanationtc[OdqV,F51
     P116jHw ^C2020 09 17.38443600 46 45.735-04 14 49.58   ~9HI7 22.57GVNEOCP568
     P116jHw ^C2020 09 17.38561600 46 45.637-04 14 50.03   ~9HI7 22.46GVNEOCP568
     P116jHw ^C2020 09 17.38679300 46 45.541-04 14 50.44   ~9HI7 22.55GVNEOCP568

Station data:
(568) Mauna Kea  (N19.826116 W155.472200)  US/Hawaii.
(F51) Pan-STARRS 1, Haleakala  (N20.707235 W156.255910)  US/Hawaii.
   Observers N. Primak, A. Schultz, S. Watters, J. Thiel, T. Goggia. Measurer
   PS1 Science Consortium. 1.8-m Ritchey-Chrétien + CCD.

Orbital elements:  P116jHw
   Perihelion 2020 Feb 11.072922 +/- 43.7 TT =  1:45:00 (JD 2458890.572922)
Epoch 2020 Sep 17.0 TT = JDT 2459109.5   Earth MOID: 0.4225   Ma: 0.0390
M 101.29622793 +/- 20               (J2000 ecliptic)          AutoNEOCP
n   0.46269391 +/- 0.00689          Peri.  191.74621 +/- 13
a   1.65554194 +/- 0.0164           Node    53.09601 +/- 3.8
e   0.1331008 +/- 0.0187            Incl.    4.59341 +/- 0.49
P   2.13/778.04d           H 21.9   G  0.15   U  9.5  
q 1.43518790 +/- 0.0287    Q 1.87589597 +/- 0.0413
From 8 observations 2020 Sept. 15-17 (46.2 hr); mean residual 0".11
Residuals in arcseconds: 
200915 F51  .14+  .05+    200916 F51  .04+  .06-    200917 568  .00   .05-    
200915 F51  .11-  .19-    200916 F51  .16-  .02+    200917 568  .00   .03-    
200916 F51  .05+  .32+    200917 568  .03+  .03-    

Ephemerides (geocentric):
Date (UTC) HH   RA              Dec         delta   r     elong  mag " sig PA
---- -- -- --  -------------   -----------  ------ ------ -----  --- ---- ---
2020 09 19 03  00 44 28.467   -04 25 15.23  .73849 1.7290 165.3 23.0 2.39 151
2020 09 19 04  00 44 25.145   -04 25 30.20  .73848 1.7290 165.3 23.0 2.44 151
2020 09 19 05  00 44 21.820   -04 25 45.17  .73847 1.7291 165.3 23.0 2.50 152
2020 09 19 06  00 44 18.493   -04 26 00.13  .73846 1.7292 165.4 23.0 2.56 153
2020 09 19 07  00 44 15.165   -04 26 15.08  .73845 1.7292 165.4 23.0 2.61 153
2020 09 19 08  00 44 11.834   -04 26 30.03  .73845 1.7293 165.5 23.0 2.67 154
2020 09 19 09  00 44 08.502   -04 26 44.97  .73844 1.7294 165.5 23.0 2.73 154
2020 09 19 10  00 44 05.167   -04 26 59.91  .73843 1.7294 165.6 23.0 2.79 155
2020 09 19 11  00 44 01.831   -04 27 14.83  .73842 1.7295 165.6 23.0 2.85 156
2020 09 19 12  00 43 58.493   -04 27 29.75  .73842 1.7296 165.7 23.0 2.92 156
2020 09 19 13  00 43 55.152   -04 27 44.67  .73841 1.7297 165.7 23.0 2.98 157
2020 09 19 14  00 43 51.810   -04 27 59.57  .73841 1.7297 165.8 23.0 3.04 157
2020 09 19 15  00 43 48.466   -04 28 14.47  .73840 1.7298 165.8 23.0 3.11 158
2020 09 19 16  00 43 45.120   -04 28 29.37  .73840 1.7299 165.9 23.0 3.18 158
2020 09 19 17  00 43 41.772   -04 28 44.25  .73839 1.7299 165.9 23.0 3.24 159
2020 09 19 18  00 43 38.423   -04 28 59.13  .73839 1.7300 165.9 23.0 3.31 160
2020 09 19 19  00 43 35.071   -04 29 14.00  .73839 1.7301 166.0 23.0 3.38 160
2020 09 19 20  00 43 31.718   -04 29 28.86  .73838 1.7301 166.0 23.0 3.46 161
2020 09 19 21  00 43 28.362   -04 29 43.72  .73838 1.7302 166.1 23.0 3.53 161
2020 09 19 22  00 43 25.005   -04 29 58.57  .73838 1.7303 166.1 23.0 3.60 162
2020 09 19 23  00 43 21.646   -04 30 13.41  .73838 1.7303 166.2 23.0 3.68 162
2020 09 20 00  00 43 18.286   -04 30 28.24  .73838 1.7304 166.2 23.0 3.75 163
2020 09 20 01  00 43 14.923   -04 30 43.07  .73838 1.7305 166.3 23.0 3.83 163
2020 09 20 02  00 43 11.559   -04 30 57.89  .73837 1.7305 166.3 23.0 3.91 164
2020 09 20 03  00 43 08.193   -04 31 12.70  .73837 1.7306 166.3 23.0 3.99 164
2020 09 20 04  00 43 04.825   -04 31 27.50  .73837 1.7307 166.4 23.0 4.07 165
2020 09 20 05  00 43 01.455   -04 31 42.29  .73837 1.7307 166.4 23.0 4.15 165
2020 09 20 06  00 42 58.084   -04 31 57.08  .73838 1.7308 166.5 23.0 4.23 166
2020 09 20 07  00 42 54.711   -04 32 11.86  .73838 1.7309 166.5 23.0 4.32 166
2020 09 20 08  00 42 51.336   -04 32 26.63  .73838 1.7309 166.6 23.0 4.40 167
2020 09 20 09  00 42 47.959   -04 32 41.39  .73838 1.7310 166.6 23.0 4.49 167
2020 09 20 10  00 42 44.581   -04 32 56.14  .73838 1.7311 166.7 23.0 4.58 168
2020 09 20 11  00 42 41.201   -04 33 10.89  .73838 1.7311 166.7 23.0 4.67 168
2020 09 20 12  00 42 37.819   -04 33 25.63  .73839 1.7312 166.7 23.0 4.76 169
2020 09 20 13  00 42 34.436   -04 33 40.36  .73839 1.7313 166.8 23.0 4.85 169
2020 09 20 14  00 42 31.051   -04 33 55.08  .73839 1.7313 166.8 23.0 4.94 170
2020 09 20 15  00 42 27.664   -04 34 09.79  .73840 1.7314 166.9 23.0 5.04 170
2020 09 20 16  00 42 24.276   -04 34 24.49  .73840 1.7315 166.9 23.0 5.13 171
2020 09 20 17  00 42 20.886   -04 34 39.19  .73841 1.7315 167.0 23.0 5.23 171
2020 09 20 18  00 42 17.495   -04 34 53.87  .73841 1.7316 167.0 23.0 5.33 171
2020 09 20 19  00 42 14.101   -04 35 08.55  .73842 1.7317 167.0 23.0 5.43 172
2020 09 20 20  00 42 10.707   -04 35 23.22  .73843 1.7317 167.1 23.0 5.53 172
2020 09 20 21  00 42 07.310   -04 35 37.88  .73843 1.7318 167.1 23.0 5.63 173
2020 09 20 22  00 42 03.912   -04 35 52.53  .73844 1.7319 167.2 23.0 5.73 173
2020 09 20 23  00 42 00.513   -04 36 07.17  .73845 1.7319 167.2 23.0 5.84 174
2020 09 21 00  00 41 57.112   -04 36 21.80  .73845 1.7320 167.3 23.0 5.95 174
2020 09 21 01  00 41 53.709   -04 36 36.42  .73846 1.7320 167.3 23.0 6.05 174
2020 09 21 02  00 41 50.305   -04 36 51.04  .73847 1.7321 167.3 23.0 6.16 175